IRNSS-1I                
1 43286U 18035A   19257.69217476  .00000104  00000-0  00000+0 0  9990
2 43286  28.6240 114.1272 0019383 178.4526   5.1727  1.00268705  5323
PSLV R/B                
1 43287U 18035B   19257.50820054  .00002530  00000-0  27399-3 0  9992
2 43287  19.0769  75.6889 6068639 205.8862 103.7101  3.96707667 20556